Year,Month,Day,Hour,Minute,Value (Times are PST for temperature in C)
2013,07,17,00,00,19.30
2013,07,17,00,01,19.30
2013,07,17,00,02,19.30
2013,07,17,00,03,19.30
2013,07,17,00,04,19.30
2013,07,17,00,05,19.30
2013,07,17,00,06,19.30
2013,07,17,00,07,19.30
2013,07,17,00,08,19.20
2013,07,17,00,09,19.20
2013,07,17,00,10,19.20
2013,07,17,00,11,19.20
2013,07,17,00,12,19.20
2013,07,17,00,13,19.20
2013,07,17,00,18,19.30
2013,07,17,00,19,19.30
2013,07,17,00,20,19.40
2013,07,17,00,21,19.40
2013,07,17,00,22,19.50
2013,07,17,00,23,19.50
2013,07,17,00,24,19.60
2013,07,17,00,25,19.60
2013,07,17,00,26,19.70
2013,07,17,00,27,19.70
2013,07,17,00,28,19.70
2013,07,17,00,29,19.70
2013,07,17,00,30,19.70
2013,07,17,00,31,19.70
2013,07,17,00,32,19.80
2013,07,17,00,33,19.80
2013,07,17,00,34,19.80
2013,07,17,00,35,19.80
2013,07,17,00,36,19.90
2013,07,17,00,37,19.90
2013,07,17,00,38,19.90
2013,07,17,00,39,19.90
2013,07,17,00,40,20.00
2013,07,17,00,41,20.00
2013,07,17,00,42,20.10
2013,07,17,00,43,20.20
2013,07,17,00,44,20.20
2013,07,17,00,45,20.30
2013,07,17,00,46,20.40
2013,07,17,00,47,20.50
2013,07,17,00,48,20.60
2013,07,17,00,49,20.70
2013,07,17,00,50,20.80
2013,07,17,00,51,20.80
2013,07,17,00,52,20.90
2013,07,17,00,53,21.00
2013,07,17,00,54,21.10
2013,07,17,00,55,21.10
2013,07,17,00,56,21.20
2013,07,17,00,57,21.30
2013,07,17,00,58,21.40
2013,07,17,00,59,21.50
2013,07,17,01,00,21.70
2013,07,17,01,01,22.20
2013,07,17,01,02,22.70
2013,07,17,01,03,23.10
2013,07,17,01,04,23.40
2013,07,17,01,05,23.70
2013,07,17,01,06,23.90
2013,07,17,01,07,24.20
2013,07,17,01,08,24.40
2013,07,17,01,09,24.60
2013,07,17,01,10,24.70
2013,07,17,01,11,24.80
2013,07,17,01,12,24.90
2013,07,17,01,13,25.00
2013,07,17,01,14,25.10
2013,07,17,01,15,25.20
2013,07,17,01,16,25.30
2013,07,17,01,17,25.30
2013,07,17,01,18,25.30
2013,07,17,01,19,25.40
2013,07,17,01,20,25.40
2013,07,17,01,21,25.40
2013,07,17,01,22,25.40
2013,07,17,01,23,25.40
2013,07,17,01,24,25.40
2013,07,17,01,25,25.50
2013,07,17,01,26,25.50
2013,07,17,01,27,25.60
2013,07,17,01,28,25.60
2013,07,17,01,29,25.70
2013,07,17,01,30,25.70
2013,07,17,01,31,25.70
2013,07,17,01,32,25.70
2013,07,17,01,33,25.70
2013,07,17,01,34,25.70
2013,07,17,01,35,25.70
2013,07,17,01,36,25.70
2013,07,17,01,37,25.70
2013,07,17,01,38,25.70
2013,07,17,01,39,25.70
2013,07,17,01,40,25.70
2013,07,17,01,41,25.70
2013,07,17,01,42,25.80
2013,07,17,01,43,25.80
2013,07,17,01,44,25.80
2013,07,17,01,45,25.80
2013,07,17,01,46,25.90
2013,07,17,01,47,25.90
2013,07,17,01,48,25.90
2013,07,17,01,49,25.90
2013,07,17,01,50,25.90
2013,07,17,01,51,25.90
2013,07,17,01,52,25.90
2013,07,17,01,53,25.90
2013,07,17,01,54,25.90
2013,07,17,01,55,25.80
2013,07,17,01,56,25.80
2013,07,17,01,57,25.80
2013,07,17,01,58,25.80
2013,07,17,01,59,25.80
2013,07,17,02,00,25.80
2013,07,17,02,01,25.70
2013,07,17,02,02,25.60
2013,07,17,02,03,25.60
2013,07,17,02,04,25.50
2013,07,17,02,05,25.30
2013,07,17,02,06,25.20
2013,07,17,02,07,25.10
2013,07,17,02,08,25.00
2013,07,17,02,09,24.90
2013,07,17,02,10,24.80
2013,07,17,02,11,24.70
2013,07,17,02,12,24.60
2013,07,17,02,13,24.50
2013,07,17,02,14,24.40
2013,07,17,02,15,24.30
2013,07,17,02,16,24.20
2013,07,17,02,17,24.10
2013,07,17,02,18,24.00
2013,07,17,02,19,23.90
2013,07,17,02,20,23.80
2013,07,17,02,21,23.70
2013,07,17,02,22,23.70
2013,07,17,02,23,23.70
2013,07,17,02,24,23.80
2013,07,17,02,25,23.80
2013,07,17,02,26,23.80
2013,07,17,02,27,23.80
2013,07,17,02,28,23.80
2013,07,17,02,29,23.80
2013,07,17,02,30,23.80
2013,07,17,02,31,23.80
2013,07,17,02,32,23.90
2013,07,17,02,33,24.10
2013,07,17,02,34,24.20
2013,07,17,02,35,24.30
2013,07,17,02,36,24.30
2013,07,17,02,37,24.30
2013,07,17,02,38,24.30
2013,07,17,02,39,24.30
2013,07,17,02,40,24.20
2013,07,17,02,41,24.20
2013,07,17,02,42,24.10
2013,07,17,02,43,24.10
2013,07,17,02,44,24.00
2013,07,17,02,45,23.90
2013,07,17,02,46,23.90
2013,07,17,02,47,23.80
2013,07,17,02,48,23.70
2013,07,17,02,49,23.60
2013,07,17,02,50,23.50
2013,07,17,02,51,23.50
2013,07,17,02,52,23.40
2013,07,17,02,53,23.40
2013,07,17,02,54,23.40
2013,07,17,02,55,23.30
2013,07,17,02,56,23.30
2013,07,17,02,57,23.20
2013,07,17,02,58,23.20
2013,07,17,02,59,23.20
2013,07,17,03,00,23.10
2013,07,17,03,01,23.00
2013,07,17,03,02,23.00
2013,07,17,03,03,22.90
2013,07,17,03,04,22.80
2013,07,17,03,05,22.70
2013,07,17,03,06,22.70
2013,07,17,03,07,22.60
2013,07,17,03,08,22.60
2013,07,17,03,09,22.50
2013,07,17,03,10,22.40
2013,07,17,03,11,22.40
2013,07,17,03,12,22.40
2013,07,17,03,13,22.30
2013,07,17,03,14,22.30
2013,07,17,03,15,22.20
2013,07,17,03,16,22.20
2013,07,17,03,17,22.10
2013,07,17,03,18,22.00
2013,07,17,03,19,22.00
2013,07,17,03,20,21.90
2013,07,17,03,21,21.80
2013,07,17,03,22,21.80
2013,07,17,03,23,21.70
2013,07,17,03,24,21.60
2013,07,17,03,25,21.50
2013,07,17,03,26,21.40
2013,07,17,03,27,21.30
2013,07,17,03,28,21.20
2013,07,17,03,29,21.20
2013,07,17,03,30,21.20
2013,07,17,03,31,21.10
2013,07,17,03,32,21.10
2013,07,17,03,33,21.00
2013,07,17,03,34,20.90
2013,07,17,03,35,20.90
2013,07,17,03,36,20.90
2013,07,17,03,37,20.80
2013,07,17,03,38,20.80
2013,07,17,03,39,20.80
2013,07,17,03,40,20.70
2013,07,17,03,41,20.70
2013,07,17,03,42,20.70
2013,07,17,03,43,20.70
2013,07,17,03,44,20.60
2013,07,17,03,45,20.60
2013,07,17,03,46,20.50
2013,07,17,03,47,20.50
2013,07,17,03,48,20.40
2013,07,17,03,49,20.30
2013,07,17,03,50,20.30
2013,07,17,03,51,20.20
2013,07,17,03,52,20.20
2013,07,17,03,53,20.10
2013,07,17,03,54,20.00
2013,07,17,03,55,20.00
2013,07,17,03,56,19.90
2013,07,17,03,57,19.80
2013,07,17,03,58,19.80
2013,07,17,03,59,19.80
2013,07,17,04,00,19.70
2013,07,17,04,01,19.70
2013,07,17,04,02,19.60
2013,07,17,04,03,19.60
2013,07,17,04,04,19.60
2013,07,17,04,05,19.50
2013,07,17,04,06,19.50
2013,07,17,04,07,19.40
2013,07,17,04,08,19.40
2013,07,17,04,09,19.40
2013,07,17,04,10,19.30
2013,07,17,04,11,19.30
2013,07,17,04,12,19.30
2013,07,17,04,13,19.30
2013,07,17,04,14,19.20
2013,07,17,04,15,19.20
2013,07,17,04,16,19.20
2013,07,17,04,17,19.20
2013,07,17,04,18,19.20
2013,07,17,04,19,19.20
2013,07,17,04,20,19.20
2013,07,17,04,21,19.20
2013,07,17,04,22,19.20
2013,07,17,04,23,19.20
2013,07,17,04,24,19.20
2013,07,17,04,25,19.20
2013,07,17,04,26,19.20
2013,07,17,04,27,19.20
2013,07,17,04,28,19.20
2013,07,17,04,29,19.20
2013,07,17,04,30,19.20
2013,07,17,04,31,19.20
2013,07,17,04,32,19.20
2013,07,17,04,33,19.20
2013,07,17,04,34,19.20
2013,07,17,04,35,19.20
2013,07,17,04,36,19.20
2013,07,17,04,37,19.20
2013,07,17,04,38,19.20
2013,07,17,04,39,19.10
2013,07,17,04,40,19.10
2013,07,17,04,41,19.10
2013,07,17,04,42,19.10
2013,07,17,04,43,19.00
2013,07,17,04,44,19.00
2013,07,17,04,45,19.00
2013,07,17,04,46,18.90
2013,07,17,04,47,18.90
2013,07,17,04,48,18.90
2013,07,17,04,49,18.90
2013,07,17,04,50,18.80
2013,07,17,04,51,18.80
2013,07,17,04,52,18.80
2013,07,17,04,53,18.80
2013,07,17,04,54,18.80
2013,07,17,04,55,18.80
2013,07,17,04,56,18.80
2013,07,17,04,57,18.80
2013,07,17,04,58,18.80
2013,07,17,04,59,18.80
2013,07,17,05,00,18.70
2013,07,17,05,01,18.70
2013,07,17,05,02,18.70
2013,07,17,05,03,18.70
2013,07,17,05,04,18.70
2013,07,17,05,05,18.70
2013,07,17,05,06,18.70
2013,07,17,05,07,18.70
2013,07,17,05,08,18.70
2013,07,17,05,09,18.70
2013,07,17,05,10,18.70
2013,07,17,05,11,18.70
2013,07,17,05,12,18.60
2013,07,17,05,13,18.60
2013,07,17,05,14,18.60
2013,07,17,05,15,18.50
2013,07,17,05,16,18.50
2013,07,17,05,17,18.50
2013,07,17,05,18,18.40
2013,07,17,05,19,18.40
2013,07,17,05,20,18.40
2013,07,17,05,21,18.40
2013,07,17,05,22,18.40
2013,07,17,05,23,18.40
2013,07,17,05,24,18.40
2013,07,17,05,25,18.30
2013,07,17,05,26,18.30
2013,07,17,05,27,18.30
2013,07,17,05,28,18.30
2013,07,17,05,29,18.30
2013,07,17,05,30,18.30
2013,07,17,05,31,18.20
2013,07,17,05,32,18.20
2013,07,17,05,33,18.20
2013,07,17,05,34,18.20
2013,07,17,05,35,18.20
2013,07,17,05,36,18.20
2013,07,17,05,37,18.10
2013,07,17,05,38,18.10
2013,07,17,05,39,18.10
2013,07,17,05,40,18.10
2013,07,17,05,41,18.10
2013,07,17,05,42,18.10
2013,07,17,05,43,18.10
2013,07,17,05,44,18.00
2013,07,17,05,45,18.00
2013,07,17,05,46,18.00
2013,07,17,05,47,18.00
2013,07,17,05,48,18.00
2013,07,17,05,49,17.90
2013,07,17,05,50,17.90
2013,07,17,05,51,17.90
2013,07,17,05,52,17.90
2013,07,17,05,53,17.90
2013,07,17,05,54,17.90
2013,07,17,05,55,17.80
2013,07,17,05,56,17.80
2013,07,17,05,57,17.80
2013,07,17,05,58,17.80
2013,07,17,05,59,17.80
2013,07,17,06,00,17.80
2013,07,17,06,01,17.80
2013,07,17,06,02,17.80
2013,07,17,06,03,17.80
2013,07,17,06,04,17.70
2013,07,17,06,05,17.70
2013,07,17,06,06,17.70
2013,07,17,06,07,17.70
2013,07,17,06,08,17.70
2013,07,17,06,09,17.70
2013,07,17,06,10,17.70
2013,07,17,06,11,17.70
2013,07,17,06,12,17.70
2013,07,17,06,13,17.70
2013,07,17,06,14,17.70
2013,07,17,06,15,17.70
2013,07,17,06,16,17.70
2013,07,17,06,17,17.60
2013,07,17,06,18,17.60
2013,07,17,06,19,17.60
2013,07,17,06,20,17.60
2013,07,17,06,21,17.60
2013,07,17,06,22,17.60
2013,07,17,06,23,17.60
2013,07,17,06,24,17.60
2013,07,17,06,25,17.60
2013,07,17,06,26,17.60
2013,07,17,06,27,17.60
2013,07,17,06,28,17.60
2013,07,17,06,29,17.70
2013,07,17,06,30,17.70
2013,07,17,06,31,17.70
2013,07,17,06,32,17.70
2013,07,17,06,33,17.70
2013,07,17,06,34,17.70
2013,07,17,06,35,17.70
2013,07,17,06,36,17.70
2013,07,17,06,37,17.70
2013,07,17,06,38,17.70
2013,07,17,06,39,17.70
2013,07,17,06,40,17.70
2013,07,17,06,41,17.70
2013,07,17,06,42,17.70
2013,07,17,06,43,17.70
2013,07,17,06,44,17.70
2013,07,17,06,45,17.70
2013,07,17,06,46,17.70
2013,07,17,06,47,17.70
2013,07,17,06,48,17.70
2013,07,17,06,49,17.70
2013,07,17,06,50,17.70
2013,07,17,06,51,17.80
2013,07,17,06,52,17.80
2013,07,17,06,53,17.80
2013,07,17,06,54,17.80
2013,07,17,06,55,17.80
2013,07,17,06,56,17.80
2013,07,17,06,57,17.80
2013,07,17,06,58,17.80
2013,07,17,06,59,17.80
2013,07,17,07,00,17.80
2013,07,17,07,01,17.80
2013,07,17,07,02,17.80
2013,07,17,07,03,17.80
2013,07,17,07,04,17.80
2013,07,17,07,05,17.80
2013,07,17,07,06,17.80
2013,07,17,07,07,17.80
2013,07,17,07,08,17.80
2013,07,17,07,09,17.80
2013,07,17,07,10,17.80
2013,07,17,07,11,17.70
2013,07,17,07,12,17.70
2013,07,17,07,13,17.70
2013,07,17,07,14,17.70
2013,07,17,07,15,17.70
2013,07,17,07,16,17.70
2013,07,17,07,17,17.70
2013,07,17,07,18,17.70
2013,07,17,07,19,17.70
2013,07,17,07,20,17.70
2013,07,17,07,21,17.70
2013,07,17,07,22,17.70
2013,07,17,07,23,17.70
2013,07,17,07,24,17.70
2013,07,17,07,25,17.80
2013,07,17,07,26,17.80
2013,07,17,07,27,17.80
2013,07,17,07,28,17.80
2013,07,17,07,29,17.90
2013,07,17,07,30,17.90
2013,07,17,07,31,18.00
2013,07,17,07,32,18.00
2013,07,17,07,33,18.10
2013,07,17,07,34,18.20
2013,07,17,07,35,18.30
2013,07,17,07,36,18.40
2013,07,17,07,37,18.50
2013,07,17,07,38,18.70
2013,07,17,07,39,18.80
2013,07,17,07,40,18.90
2013,07,17,07,41,19.00
2013,07,17,07,42,19.10
2013,07,17,07,43,19.20
2013,07,17,07,44,19.20
2013,07,17,07,45,19.30
2013,07,17,07,46,19.30
2013,07,17,07,47,19.40
2013,07,17,07,48,19.50
2013,07,17,07,49,19.50
2013,07,17,07,50,19.60
2013,07,17,07,51,19.70
2013,07,17,07,52,19.70
2013,07,17,07,53,19.80
2013,07,17,07,54,19.80
2013,07,17,07,55,19.90
2013,07,17,07,56,19.90
2013,07,17,07,57,20.00
2013,07,17,07,58,20.00
2013,07,17,07,59,20.10
2013,07,17,08,00,20.10
2013,07,17,08,01,20.10
2013,07,17,08,02,20.10
2013,07,17,08,03,20.10
2013,07,17,08,04,20.10
2013,07,17,08,05,20.10
2013,07,17,08,06,20.10
2013,07,17,08,07,20.10
2013,07,17,08,08,20.10
2013,07,17,08,09,20.20
2013,07,17,08,10,20.30
2013,07,17,08,11,20.40
2013,07,17,08,12,20.50
2013,07,17,08,13,20.50
2013,07,17,08,14,20.60
2013,07,17,08,15,20.70
2013,07,17,08,16,20.80
2013,07,17,08,17,20.90
2013,07,17,08,18,20.90
2013,07,17,08,19,21.00
2013,07,17,08,20,21.00
2013,07,17,08,21,21.10
2013,07,17,08,22,21.20
2013,07,17,08,23,21.20
2013,07,17,08,24,21.30
2013,07,17,08,25,21.40
2013,07,17,08,26,21.40
2013,07,17,08,27,21.40
2013,07,17,08,28,21.30
2013,07,17,08,29,21.30
2013,07,17,08,30,21.30
2013,07,17,08,31,21.30
2013,07,17,08,32,21.30
2013,07,17,08,33,21.40
2013,07,17,08,34,21.40
2013,07,17,08,35,21.50
2013,07,17,08,36,21.50
2013,07,17,08,37,21.60
2013,07,17,08,38,21.60
2013,07,17,08,39,21.60
2013,07,17,08,40,21.70
2013,07,17,08,41,21.70
2013,07,17,08,42,21.70
2013,07,17,08,43,21.80
2013,07,17,08,44,21.80
2013,07,17,08,45,21.80
2013,07,17,08,46,21.80
2013,07,17,08,47,21.80
2013,07,17,08,48,21.90
2013,07,17,08,49,22.00
2013,07,17,08,50,22.10
2013,07,17,08,51,22.20
2013,07,17,08,52,22.30
2013,07,17,08,53,22.40
2013,07,17,08,54,22.40
2013,07,17,08,55,22.40
2013,07,17,08,56,22.50
2013,07,17,08,57,22.60
2013,07,17,08,58,22.60
2013,07,17,08,59,22.60
2013,07,17,09,00,22.60
2013,07,17,09,01,22.60
2013,07,17,09,02,22.70
2013,07,17,09,03,22.70
2013,07,17,09,04,22.80
2013,07,17,09,05,22.80
2013,07,17,09,06,22.80
2013,07,17,09,07,22.80
2013,07,17,09,08,22.80
2013,07,17,09,09,22.80
2013,07,17,09,10,22.90
2013,07,17,09,11,23.00
2013,07,17,09,12,23.00
2013,07,17,09,13,23.00
2013,07,17,09,14,22.90
2013,07,17,09,15,22.90
2013,07,17,09,16,22.90
2013,07,17,09,17,22.80
2013,07,17,09,18,22.80
2013,07,17,09,19,22.70
2013,07,17,09,20,22.60
2013,07,17,09,21,22.60
2013,07,17,09,22,22.60
2013,07,17,09,23,22.50
2013,07,17,09,24,22.40
2013,07,17,09,25,22.30
2013,07,17,09,26,22.30
2013,07,17,09,27,22.30
2013,07,17,09,28,22.30
2013,07,17,09,29,22.40
2013,07,17,09,30,22.50
2013,07,17,09,31,22.50
2013,07,17,09,32,22.60
2013,07,17,09,33,22.70
2013,07,17,09,34,22.80
2013,07,17,09,35,22.90
2013,07,17,09,36,23.00
2013,07,17,09,37,23.00
2013,07,17,09,38,22.90
2013,07,17,09,39,22.80
2013,07,17,09,40,22.70
2013,07,17,09,41,22.70
2013,07,17,09,42,22.70
2013,07,17,09,43,22.70
2013,07,17,09,44,22.70
2013,07,17,09,45,22.70
2013,07,17,09,46,22.60
2013,07,17,09,47,22.70
2013,07,17,09,48,22.70
2013,07,17,09,49,22.80
2013,07,17,09,50,22.80
2013,07,17,09,51,22.80
2013,07,17,09,52,22.80
2013,07,17,09,53,22.80
2013,07,17,09,54,22.80
2013,07,17,09,55,22.70
2013,07,17,09,56,22.70
2013,07,17,09,57,22.70
2013,07,17,09,58,22.70
2013,07,17,09,59,22.60
2013,07,17,10,00,22.60
2013,07,17,10,01,22.60
2013,07,17,10,02,22.60
2013,07,17,10,03,22.70
2013,07,17,10,04,22.70
2013,07,17,10,05,22.80
2013,07,17,10,06,22.80
2013,07,17,10,07,22.80
2013,07,17,10,08,22.90
2013,07,17,10,09,22.90
2013,07,17,10,10,22.90
2013,07,17,10,11,22.90
2013,07,17,10,12,22.80
2013,07,17,10,13,22.80
2013,07,17,10,14,22.90
2013,07,17,10,15,22.90
2013,07,17,10,16,23.00
2013,07,17,10,17,23.10
2013,07,17,10,18,23.20
2013,07,17,10,19,23.30
2013,07,17,10,20,23.30
2013,07,17,10,21,23.20
2013,07,17,10,22,23.10
2013,07,17,10,23,22.90
2013,07,17,10,24,22.70
2013,07,17,10,25,22.50
2013,07,17,10,26,22.30
2013,07,17,10,27,22.30
2013,07,17,10,28,22.30
2013,07,17,10,29,22.20
2013,07,17,10,30,22.10
2013,07,17,10,31,22.00
2013,07,17,10,32,21.90
2013,07,17,10,33,21.90
2013,07,17,10,34,21.90
2013,07,17,10,35,21.90
2013,07,17,10,36,21.90
2013,07,17,10,37,21.80
2013,07,17,10,38,21.80
2013,07,17,10,39,21.80
2013,07,17,10,40,21.80
2013,07,17,10,41,21.80
2013,07,17,10,42,21.70
2013,07,17,10,43,21.80
2013,07,17,10,44,21.70
2013,07,17,10,45,21.70
2013,07,17,10,46,21.70
2013,07,17,10,47,21.70
2013,07,17,10,48,21.70
2013,07,17,10,49,21.80
2013,07,17,10,50,21.80
2013,07,17,10,51,21.80
2013,07,17,10,52,21.80
2013,07,17,10,53,21.80
2013,07,17,10,54,21.70
2013,07,17,10,55,21.70
2013,07,17,10,56,21.80
2013,07,17,10,57,21.80
2013,07,17,10,58,21.80
2013,07,17,10,59,21.90
2013,07,17,11,00,22.00
2013,07,17,11,01,22.10
2013,07,17,11,02,22.00
2013,07,17,11,03,22.10
2013,07,17,11,04,22.20
2013,07,17,11,05,22.30
2013,07,17,11,06,22.40
2013,07,17,11,07,22.50
2013,07,17,11,08,22.60
2013,07,17,11,09,22.80
2013,07,17,11,10,22.90
2013,07,17,11,11,23.10
2013,07,17,11,12,23.20
2013,07,17,11,13,23.40
2013,07,17,11,14,23.50
2013,07,17,11,15,23.60
2013,07,17,11,16,23.70
2013,07,17,11,17,23.70
2013,07,17,11,18,23.70
2013,07,17,11,19,23.70
2013,07,17,11,20,23.80
2013,07,17,11,21,23.90
2013,07,17,11,22,24.00
2013,07,17,11,23,23.90
2013,07,17,11,24,23.80
2013,07,17,11,25,23.80
2013,07,17,11,26,23.70
2013,07,17,11,27,23.60
2013,07,17,11,28,23.50
2013,07,17,11,29,23.40
2013,07,17,11,30,23.40
2013,07,17,11,31,23.50
2013,07,17,11,32,23.70
2013,07,17,11,33,23.80
2013,07,17,11,34,24.00
2013,07,17,11,35,24.00
2013,07,17,11,36,24.00
2013,07,17,11,37,24.10
2013,07,17,11,38,24.30
2013,07,17,11,39,24.40
2013,07,17,11,40,24.40
2013,07,17,11,41,24.50
2013,07,17,11,42,24.60
2013,07,17,11,43,24.70
2013,07,17,11,44,24.80
2013,07,17,11,45,24.90
2013,07,17,11,46,24.90
2013,07,17,11,47,24.80
2013,07,17,11,48,24.50
2013,07,17,11,49,24.30
2013,07,17,11,50,24.00
2013,07,17,11,51,23.80
2013,07,17,11,52,23.60
2013,07,17,11,53,23.40
2013,07,17,11,54,23.20
2013,07,17,11,55,23.20
2013,07,17,11,56,23.20
2013,07,17,11,57,23.30
2013,07,17,11,58,23.30
2013,07,17,11,59,23.50
2013,07,17,12,00,23.60
2013,07,17,12,01,23.70
2013,07,17,12,02,23.90
2013,07,17,12,03,24.00
2013,07,17,12,04,24.00
2013,07,17,12,05,24.00
2013,07,17,12,06,23.90
2013,07,17,12,07,23.70
2013,07,17,12,08,23.60
2013,07,17,12,09,23.60
2013,07,17,12,10,23.60
2013,07,17,12,11,23.50
2013,07,17,12,12,23.40
2013,07,17,12,13,23.20
2013,07,17,12,14,23.20
2013,07,17,12,15,23.10
2013,07,17,12,16,23.00
2013,07,17,12,17,22.90
2013,07,17,12,18,22.80
2013,07,17,12,19,22.70
2013,07,17,12,20,22.80
2013,07,17,12,21,22.90
2013,07,17,12,22,22.90
2013,07,17,12,23,23.00
2013,07,17,12,24,23.10
2013,07,17,12,25,23.20
2013,07,17,12,26,23.20
2013,07,17,12,27,23.30
2013,07,17,12,28,23.20
2013,07,17,12,29,23.20
2013,07,17,12,30,23.10
2013,07,17,12,31,23.10
2013,07,17,12,32,23.10
2013,07,17,12,33,23.20
2013,07,17,12,34,23.10
2013,07,17,12,35,23.20
2013,07,17,12,36,23.20
2013,07,17,12,37,23.20
2013,07,17,12,38,23.20
2013,07,17,12,39,23.20
2013,07,17,12,40,23.20
2013,07,17,12,41,23.30
2013,07,17,12,42,23.20
2013,07,17,12,43,23.10
2013,07,17,12,44,23.10
2013,07,17,12,45,23.00
2013,07,17,12,46,22.90
2013,07,17,12,47,22.90
2013,07,17,12,48,22.80
2013,07,17,12,49,22.90
2013,07,17,12,50,23.00
2013,07,17,12,51,23.00
2013,07,17,12,52,23.10
2013,07,17,12,53,23.20
2013,07,17,12,54,23.30
2013,07,17,12,55,23.20
2013,07,17,12,56,23.10
2013,07,17,12,57,23.30
2013,07,17,12,58,23.30
2013,07,17,12,59,23.30
2013,07,17,13,00,23.30
2013,07,17,13,01,23.40
2013,07,17,13,02,23.60
2013,07,17,13,03,23.70
2013,07,17,13,04,23.70
2013,07,17,13,05,23.50
2013,07,17,13,06,23.50
2013,07,17,13,07,23.50
2013,07,17,13,08,23.30
2013,07,17,13,09,23.30
2013,07,17,13,10,23.40
2013,07,17,13,11,23.40
2013,07,17,13,12,23.40
2013,07,17,13,13,23.30
2013,07,17,13,14,23.30
2013,07,17,13,15,23.30
2013,07,17,13,16,23.40
2013,07,17,13,17,23.50
2013,07,17,13,18,23.40
2013,07,17,13,19,23.40
2013,07,17,13,20,23.40
2013,07,17,13,21,23.30
2013,07,17,13,22,23.20
2013,07,17,13,23,23.20
2013,07,17,13,24,23.10
2013,07,17,13,25,23.00
2013,07,17,13,26,23.20
2013,07,17,13,27,23.20
2013,07,17,13,28,23.20
2013,07,17,13,29,23.00
2013,07,17,13,30,23.00
2013,07,17,13,31,23.00
2013,07,17,13,32,23.10
2013,07,17,13,33,23.20
2013,07,17,13,34,23.30
2013,07,17,13,35,23.30
2013,07,17,13,36,23.20
2013,07,17,13,37,23.30
2013,07,17,13,38,23.40
2013,07,17,13,39,23.40
2013,07,17,13,40,23.40
2013,07,17,13,41,23.40
2013,07,17,13,42,23.20
2013,07,17,13,43,23.20
2013,07,17,13,44,23.10
2013,07,17,13,45,23.10
2013,07,17,13,46,23.10
2013,07,17,13,47,23.00
2013,07,17,13,48,22.80
2013,07,17,13,49,22.90
2013,07,17,13,50,23.00
2013,07,17,13,51,23.00
2013,07,17,13,52,23.10
2013,07,17,13,53,23.20
2013,07,17,13,54,23.10
2013,07,17,13,55,23.00
2013,07,17,13,56,22.90
2013,07,17,13,57,22.70
2013,07,17,13,58,22.60
2013,07,17,13,59,22.50
2013,07,17,14,00,22.50
2013,07,17,14,01,22.40
2013,07,17,14,02,22.40
2013,07,17,14,03,22.30
2013,07,17,14,04,22.40
2013,07,17,14,05,22.50
2013,07,17,14,06,22.60
2013,07,17,14,07,22.70
2013,07,17,14,08,22.70
2013,07,17,14,09,22.80
2013,07,17,14,10,22.90
2013,07,17,14,11,22.90
2013,07,17,14,12,22.90
2013,07,17,14,13,22.90
2013,07,17,14,14,22.90
2013,07,17,14,15,22.90
2013,07,17,14,16,23.20
2013,07,17,14,17,23.30
2013,07,17,14,18,23.30
2013,07,17,14,19,23.30
2013,07,17,14,20,23.40
2013,07,17,14,21,23.40
2013,07,17,14,22,23.30
2013,07,17,14,23,23.20
2013,07,17,14,24,23.20
2013,07,17,14,25,23.30
2013,07,17,14,26,23.40
2013,07,17,14,27,23.30
2013,07,17,14,28,23.30
2013,07,17,14,29,23.30
2013,07,17,14,30,23.30
2013,07,17,14,31,23.40
2013,07,17,14,32,23.30
2013,07,17,14,33,23.30
2013,07,17,14,34,23.10
2013,07,17,14,35,23.00
2013,07,17,14,36,22.90
2013,07,17,14,37,22.90
2013,07,17,14,38,23.00
2013,07,17,14,39,23.10
2013,07,17,14,40,23.20
2013,07,17,14,41,23.20
2013,07,17,14,42,23.30
2013,07,17,14,43,23.40
2013,07,17,14,44,23.30
2013,07,17,14,45,23.30
2013,07,17,14,46,23.20
2013,07,17,14,47,23.10
2013,07,17,14,48,23.10
2013,07,17,14,49,23.10
2013,07,17,14,50,23.00
2013,07,17,14,51,23.00
2013,07,17,14,52,23.00
2013,07,17,14,53,23.00
2013,07,17,14,54,23.10
2013,07,17,14,55,23.00
2013,07,17,14,56,23.00
2013,07,17,14,57,23.10
2013,07,17,14,58,23.10
2013,07,17,14,59,23.30
2013,07,17,15,00,23.40
2013,07,17,15,01,23.60
2013,07,17,15,02,23.80
2013,07,17,15,03,24.00
2013,07,17,15,04,24.10
2013,07,17,15,05,24.20
2013,07,17,15,06,24.20
2013,07,17,15,07,24.10
2013,07,17,15,08,24.00
2013,07,17,15,09,23.90
2013,07,17,15,10,23.90
2013,07,17,15,11,23.80
2013,07,17,15,12,23.70
2013,07,17,15,13,23.70
2013,07,17,15,14,23.70
2013,07,17,15,15,23.70
2013,07,17,15,16,23.90
2013,07,17,15,17,23.90
2013,07,17,15,18,24.00
2013,07,17,15,19,24.10
2013,07,17,15,20,24.00
2013,07,17,15,21,23.90
2013,07,17,15,22,23.90
2013,07,17,15,23,23.80
2013,07,17,15,24,23.70
2013,07,17,15,25,23.80
2013,07,17,15,26,24.00
2013,07,17,15,27,24.20
2013,07,17,15,28,24.30
2013,07,17,15,29,24.40
2013,07,17,15,30,24.40
2013,07,17,15,31,24.40
2013,07,17,15,32,24.40
2013,07,17,15,33,24.40
2013,07,17,15,34,24.30
2013,07,17,15,35,24.30
2013,07,17,15,36,24.30
2013,07,17,15,37,24.30
2013,07,17,15,38,24.00
2013,07,17,15,39,23.80
2013,07,17,15,40,23.70
2013,07,17,15,41,23.60
2013,07,17,15,42,23.60
2013,07,17,15,43,23.50
2013,07,17,15,44,23.50
2013,07,17,15,45,23.40
2013,07,17,15,46,23.40
2013,07,17,15,47,23.30
2013,07,17,15,48,23.20
2013,07,17,15,49,23.20
2013,07,17,15,50,23.20
2013,07,17,15,51,23.30
2013,07,17,15,52,23.30
2013,07,17,15,53,23.30
2013,07,17,15,54,23.30
2013,07,17,15,55,23.40
2013,07,17,15,56,23.40
2013,07,17,15,57,23.40
2013,07,17,15,58,23.40
2013,07,17,15,59,23.50
2013,07,17,16,00,23.40
2013,07,17,16,01,23.40
2013,07,17,16,02,23.30
2013,07,17,16,03,23.30
2013,07,17,16,04,23.30
2013,07,17,16,05,23.30
2013,07,17,16,06,23.40
2013,07,17,16,07,23.30
2013,07,17,16,08,23.20
2013,07,17,16,09,23.30
2013,07,17,16,10,23.30
2013,07,17,16,11,23.40
2013,07,17,16,12,23.60
2013,07,17,16,13,23.80
2013,07,17,16,14,23.90
2013,07,17,16,15,24.00
2013,07,17,16,16,24.10
2013,07,17,16,17,24.20
2013,07,17,16,18,24.30
2013,07,17,16,19,24.20
2013,07,17,16,20,24.10
2013,07,17,16,21,24.00
2013,07,17,16,22,23.90
2013,07,17,16,23,23.70
2013,07,17,16,24,23.50
2013,07,17,16,25,23.50
2013,07,17,16,26,23.60
2013,07,17,16,27,23.50
2013,07,17,16,28,23.40
2013,07,17,16,29,23.40
2013,07,17,16,30,23.30
2013,07,17,16,31,23.30
2013,07,17,16,32,23.30
2013,07,17,16,33,23.40
2013,07,17,16,34,23.40
2013,07,17,16,35,23.40
2013,07,17,16,36,23.40
2013,07,17,16,37,23.30
2013,07,17,16,38,23.30
2013,07,17,16,39,23.20
2013,07,17,16,40,23.20
2013,07,17,16,41,23.20
2013,07,17,16,42,23.10
2013,07,17,16,43,23.00
2013,07,17,16,44,23.00
2013,07,17,16,45,23.10
2013,07,17,16,46,23.00
2013,07,17,16,47,23.00
2013,07,17,16,48,23.00
2013,07,17,16,49,23.20
2013,07,17,16,50,23.30
2013,07,17,16,51,23.30
2013,07,17,16,52,23.30
2013,07,17,16,53,23.30
2013,07,17,16,54,23.20
2013,07,17,16,55,23.10
2013,07,17,16,56,22.90
2013,07,17,16,57,22.80
2013,07,17,16,58,22.70
2013,07,17,16,59,22.70
2013,07,17,17,00,22.70
2013,07,17,17,01,22.80
2013,07,17,17,02,22.90
2013,07,17,17,03,23.00
2013,07,17,17,04,23.20
2013,07,17,17,05,23.30
2013,07,17,17,06,23.30
2013,07,17,17,07,23.30
2013,07,17,17,08,23.20
2013,07,17,17,09,23.20
2013,07,17,17,10,23.20
2013,07,17,17,11,23.10
2013,07,17,17,12,23.00
2013,07,17,17,13,22.90
2013,07,17,17,14,23.00
2013,07,17,17,15,23.20
2013,07,17,17,16,23.20
2013,07,17,17,17,23.20
2013,07,17,17,18,23.20
2013,07,17,17,19,23.20
2013,07,17,17,20,23.10
2013,07,17,17,21,23.10
2013,07,17,17,22,23.20
2013,07,17,17,23,23.30